Weather History for KMMV - December, 2013

Change the Weather History Date:

Tuesday, December 10, 2013

  Actual Average Record
Temperature  
Mean Temperature 28 °F 40 °F  
Max Temperature 34 °F 46 °F 63 °F (2014)
Min Temperature 22 °F 34 °F -5 °F (1972)
Degree Days  
Heating Degree Days 37 25  
Month to date heating degree days 345 241  
Since 1 July heating degree days 1473 1463  
Cooling Degree Days 0 0  
Month to date cooling degree days 0 0  
Year to date cooling degree days 405 215  
Moisture  
Dew Point 24 °F    
Average Humidity 81    
Maximum Humidity 92    
Minimum Humidity 69    
Precipitation  
Precipitation 0.00 in 0.19 in 1.94 in (1992)
Month to date precipitation 0.97 1.92  
Year to date precipitation 21.86 35.57  
Snow  
Snow 0.00 in - - ()
Month to date snowfall 0.0  
Snow Depth 0.00 in    
Sea Level Pressure  
Sea Level Pressure 30.50 in    
Wind  
Wind Speed 0 mph (SSW)    
Max Wind Speed 5 mph    
Max Gust Speed 6 mph    
Visibility 6 miles    
Events      
T = Trace of Precipitation, MM = Missing Value Source: NWS Daily Summary

Daily Weather History Graph

Daily Weather History Graph

Search for Another Location

Airport or City:

Trip Planner

Search our weather history database for the weather conditions in past years. The results will help you decide how hot, cold, wet, or windy it might be!

Date:

Astronomy

Dec. 10, 2013 Rise Set
Actual Time 7:40 AM PST 4:30 PM PST
Civil Twilight 7:07 AM PST 5:03 PM PST
Nautical Twilight 6:29 AM PST 5:41 PM PST
Astronomical Twilight 5:54 AM PST 6:16 PM PST
Moon 12:48 PM PST (12/10) 12:49 AM PST (12/10)
Length of Visible Light 9h 56m
Length of Day
8h 49m
Waxing Gibbous, 63% of the Moon is Illuminated
Dec 10
Waxing Gibbous
Dec 17
Full
Dec 25
Last Quarter
Jan 1
New
Jan 7
First Quarter

Hourly Weather History & Observations

Time (PST) Temp. Windchill Dew Point Humidity Pressure Visibility Wind Dir Wind Speed Gust Speed Precip Events Conditions
12:53 AM 27.0 °F - 24.1 °F 89% 30.56 in 7.0 mi Calm Calm - N/A   Overcast
1:53 AM 27.0 °F - 24.1 °F 89% 30.56 in 7.0 mi Calm Calm - N/A   Overcast
2:53 AM 28.0 °F - 24.1 °F 85% 30.57 in 7.0 mi Calm Calm - N/A   Overcast
3:30 AM 28.4 °F - 24.8 °F 86% 30.56 in 7.0 mi Calm Calm - N/A   Overcast
3:53 AM 28.0 °F - 24.1 °F 85% 30.56 in 7.0 mi Calm Calm - N/A   Overcast
4:00 AM 28.4 °F - 24.8 °F 86% 30.55 in 7.0 mi Calm Calm - N/A   Overcast
4:22 AM 28.4 °F - 24.8 °F 86% 30.55 in 5.0 mi Calm Calm - N/A   Overcast
4:32 AM 28.4 °F - 24.8 °F 86% 30.55 in 6.0 mi Calm Calm - N/A   Overcast
4:53 AM 28.0 °F - 24.1 °F 85% 30.55 in 6.0 mi Calm Calm - N/A   Overcast
5:16 AM 28.4 °F - 24.8 °F 86% 30.54 in 6.0 mi Calm Calm - N/A   Overcast
5:53 AM 28.0 °F - 24.1 °F 85% 30.55 in 6.0 mi Calm Calm - N/A   Overcast
6:53 AM 28.0 °F - 24.1 °F 85% 30.54 in 6.0 mi Calm Calm - N/A   Overcast
7:53 AM 28.0 °F - 23.0 °F 81% 30.54 in 7.0 mi Calm Calm - N/A   Overcast
8:53 AM 28.0 °F - 23.0 °F 81% 30.54 in 5.0 mi Calm Calm - N/A   Haze
9:53 AM 30.0 °F - 24.1 °F 79% 30.53 in 6.0 mi Calm Calm - N/A   Haze
10:53 AM 30.9 °F - 24.1 °F 76% 30.53 in 5.0 mi Calm Calm - N/A   Haze
11:53 AM 30.9 °F - 24.1 °F 76% 30.51 in 5.0 mi Calm Calm - N/A   Haze
12:53 PM 33.1 °F 28.7 °F 25.0 °F 72% 30.50 in 6.0 mi ESE 4.6 mph - N/A   Haze
1:53 PM 33.1 °F - 25.0 °F 72% 30.48 in 5.0 mi Calm Calm - N/A   Haze
2:53 PM 34.0 °F - 25.0 °F 70% 30.47 in 6.0 mi Calm Calm - N/A   Haze
3:53 PM 33.1 °F - 25.0 °F 72% 30.45 in 7.0 mi Calm Calm - N/A   Clear
4:53 PM 30.9 °F - 24.1 °F 76% 30.46 in 8.0 mi Calm Calm - N/A   Clear
5:53 PM 27.0 °F - 23.0 °F 85% 30.44 in 6.0 mi Calm Calm - N/A   Clear
6:53 PM 27.0 °F - 25.0 °F 92% 30.44 in 6.0 mi Calm Calm - N/A   Clear
7:53 PM 25.0 °F - 23.0 °F 92% 30.43 in 5.0 mi Calm Calm - N/A   Clear
8:53 PM 25.0 °F 20.7 °F 23.0 °F 92% 30.44 in 5.0 mi West 3.5 mph - N/A   Clear
9:53 PM 25.0 °F - 23.0 °F 92% 30.44 in 3.0 mi Calm Calm - N/A   Clear
10:53 PM 25.0 °F - 23.0 °F 92% 30.44 in 3.0 mi Calm Calm - N/A   Clear
11:40 PM 23.0 °F - 21.2 °F 93% 30.42 in 2.0 mi Calm Calm - N/A   Clear
11:53 PM 23.0 °F - 21.9 °F 96% 30.43 in 2.0 mi Calm Calm - N/A   Clear